Starlink 11207

operational
NORAD ID: 60933 Int'l Des: 2024-155 Owner: SPXS Country: US Constellation: starlink
LEOCIRCULAR

About Starlink 11207

Description loading...

Live Position

Loading 3D Globe...

Upcoming Passes

Altitude History

Altitude vs Time

uPlot chart will show altitude changes over time

Two-Line Element Set

1 60933U 24155K 25259.34826225 -.00001911 00000-0 -10925-4 0 9998
2 60933 53.1569 120.4318 0000956 85.2064 274.9063 15.69703162 61026
Epoch: Sep 16, 2025 • Age: 21 hours

Current Status

Altitude 359.9 km
Velocity 7.70 km/s
Sub-Earth Point 7.91°N, 38.66°E
Launch Date Aug 31, 2024
Age 1 years
Type internet

Technical Details

Classification Payload
Mass 960.00 kg
Dry Mass 910.00 kg
Total Mass 960.00 kg
Length 0.30 m
Diameter 4.10 m
Span 29.00 m
Shape Box + pan
Manufacturer SPXS
Bus Type Starlink V2MD
Phase Status In Orbit
Owner/State SPXS/US

Large Constellations

Loading constellations...